User: anonymous   Login
Location: Waning Moon II Observatory
(30.3730°N, 89.7620°W)
Time: 05:51:35
(UTC-05:00)
Language:

Meteor 1-21 - Orbit

View from above orbital plane
View from above orbital plane
View from above satellite
View from above satellite

Ground track
Ground track

The orbit data is extracted from the following two-line orbital elements,

1 07714U 75023A   15242.78916888  .00000007  00000-0 -30504-5 0  9990
2 07714 081.2084 110.7918 0030513 303.4335 056.3917 14.07894165392824
Epoch (UTC): 30 August 2015 18:56:24
Eccentricity: 0.0030513
inclination: 81.2084°
perigee height: 844 km
apogee height: 888 km
right ascension of ascending node: 110.7918°
argument of perigee: 303.4335°
revolutions per day: 14.07894165
mean anomaly at epoch: 56.3917°
orbit number at epoch: 39282

The dashed part of the orbit path shows where the satellite is in the earth's shadow,  

DLR